| time (UTC) | temp F | wind direction | speed MPH | gust MPH | rain 1hr in | rain 24hr in | rain mn in | humidity % | barometer mb |
| 20260503001504 | 57 | 173 | 2.0 | 7.0 | 0.00 | 0.00 | 0.00 | 67 | 1009.9 |
| 20260502231503 | 56 | 192 | 1.0 | 5.0 | 0.00 | 0.00 | 0.00 | 69 | 1010.3 |
| 20260502230004 | 56 | 175 | 1.0 | 3.0 | 0.00 | 0.00 | 0.00 | 68 | 1010.6 |
| 20260502220004 | 58 | 184 | 2.0 | 6.0 | 0.00 | 0.00 | 0.00 | 66 | 1010.6 |
| 20260502214504 | 58 | 196 | 3.0 | 5.0 | 0.00 | 0.00 | 0.00 | 64 | 1010.7 |
| 20260502213005 | 59 | 182 | 2.0 | 8.0 | 0.00 | 0.00 | 0.00 | 62 | 1010.8 |
| 20260502201504 | 62 | 193 | 6.0 | 15.0 | 0.00 | 0.00 | 0.00 | 61 | 1011.3 |
| 20260502200004 | 62 | 203 | 6.0 | 18.0 | 0.00 | 0.00 | 0.00 | 60 | 1011.3 |
| 20260502184504 | 62 | 197 | 6.0 | 15.0 | 0.00 | 0.00 | 0.00 | 60 | 1011.0 |
| 20260502183005 | 63 | 198 | 9.0 | 17.0 | 0.00 | 0.00 | 0.00 | 60 | 1011.0 |
| 20260502181504 | 63 | 196 | 6.0 | 18.0 | 0.00 | 0.00 | 0.00 | 59 | 1011.1 |
| 20260502161504 | 69 | 196 | 10.0 | 22.0 | 0.00 | 0.00 | 0.00 | 46 | 1011.5 |
| 20260502151503 | 70 | 180 | 8.0 | 18.0 | 0.00 | 0.00 | 0.00 | 46 | 1012.4 |
| 20260502121503 | 69 | 204 | 9.0 | 20.0 | 0.00 | 0.00 | 0.00 | 45 | 1015.2 |
| 20260502110005 | 70 | 205 | 9.0 | 21.0 | 0.00 | 0.00 | 0.00 | 41 | 1016.3 |
| 20260502103004 | 70 | 208 | 8.0 | 16.0 | 0.00 | 0.00 | 0.00 | 42 | 1016.5 |
| 20260502101503 | 70 | 207 | 8.0 | 21.0 | 0.00 | 0.00 | 0.00 | 43 | 1016.5 |
| 20260502071503 | 61 | 202 | 4.0 | 7.0 | 0.00 | 0.00 | 0.00 | 56 | 1019.0 |
| 20260502064503 | 59 | 201 | 4.0 | 10.0 | 0.00 | 0.00 | 0.00 | 58 | 1019.1 |
| 20260502063004 | 58 | 207 | 3.0 | 8.0 | 0.00 | 0.00 | 0.00 | 60 | 1019.2 |
| 20260502060004 | 56 | 220 | 4.0 | 9.0 | 0.00 | 0.00 | 0.00 | 62 | 1019.2 |
| 20260502054504 | 56 | 209 | 5.0 | 9.0 | 0.00 | 0.00 | 0.00 | 66 | 1019.3 |
| 20260502051504 | 54 | 194 | 3.0 | 7.0 | 0.00 | 0.00 | 0.00 | 72 | 1019.2 |
| 20260502050004 | 54 | 185 | 3.0 | 5.0 | 0.00 | 0.00 | 0.00 | 71 | 1019.2 |
| 20260502043005 | 53 | 187 | 2.0 | 3.0 | 0.00 | 0.00 | 0.00 | 69 | 1019.2 |
| 20260502040004 | 52 | 187 | 1.0 | 3.0 | 0.00 | 0.00 | 0.00 | 73 | 1019.3 |
| 20260502034504 | 51 | 187 | 2.0 | 5.0 | 0.00 | 0.00 | 0.00 | 73 | 1019.2 |
| 20260502033004 | 50 | 197 | 3.0 | 5.0 | 0.00 | 0.00 | 0.00 | 73 | 1019.3 |
| 20260502030003 | 50 | 198 | 2.0 | 5.0 | 0.00 | 0.00 | 0.00 | 74 | 1019.4 |
| 20260502024504 | 48 | 195 | 0.0 | 0.0 | 0.00 | 0.00 | 0.00 | 75 | 1019.5 |
| 20260502014503 | 50 | 225 | 0.0 | 0.0 | 0.00 | 0.00 | 0.00 | 69 | 1019.8 |
| 20260502013003 | 50 | 225 | 0.0 | 0.0 | 0.00 | 0.00 | 0.00 | 70 | 1019.8 |
| 20260502010003 | 51 | 229 | 0.0 | 0.0 | 0.00 | 0.00 | 0.00 | 67 | 1020.0 |